This is the latest recevied weather packets stored in our database for station/object SV9TNF-55. If no packets are shown the sender has not sent any weather packets the latest 10 day(s).
| Time | Temp. | Humidity | Pressure | Rain* | Wind** | Luminosity | Snow |
|---|---|---|---|---|---|---|---|
| 1788609459 | 20.56° C | 64% | 1017.6 hPa | 0 mm | 4.02 m/s, 337° | - | - |
| 1788608860 | 20.56° C | 64% | 1017.6 hPa | 0 mm | 4.02 m/s, 337° | - | - |
| 1788608259 | 20.56° C | 63% | 1017.6 hPa | 0 mm | 4.02 m/s, 315° | - | - |
| 1788607662 | 21.11° C | 61% | 1017.7 hPa | 0 mm | 4.02 m/s, 315° | - | - |
| 1788607059 | 20.56° C | 63% | 1017.6 hPa | 0 mm | 4.02 m/s, 337° | - | - |
| 1788606459 | 20.56° C | 64% | 1017.7 hPa | 0 mm | 3.13 m/s, 337° | - | - |
| 1788605859 | 20.56° C | 64% | 1017.6 hPa | 0 mm | 3.58 m/s, 337° | - | - |
| 1788605259 | 20.56° C | 65% | 1017.6 hPa | 0 mm | 3.13 m/s, 337° | - | - |
| 1788604658 | 20.56° C | 63% | 1017.7 hPa | 0 mm | 3.13 m/s, 315° | - | - |
| 1788604059 | 20° C | 66% | 1017.8 hPa | 0 mm | 4.02 m/s, 315° | - | - |
| 1788603458 | 19.44° C | 68% | 1017.7 hPa | 0 mm | 4.47 m/s, 337° | - | - |
| 1788602858 | 20° C | 67% | 1017.9 hPa | 0 mm | 4.47 m/s, 292° | - | - |
| 1788602258 | 19.44° C | 66% | 1017.9 hPa | 0 mm | 4.47 m/s, 315° | - | - |
| 1788601658 | 19.44° C | 66% | 1017.9 hPa | 0 mm | 4.92 m/s, 315° | - | - |
| 1788601058 | 19.44° C | 66% | 1017.9 hPa | 0 mm | 4.92 m/s, 315° | - | - |
| 1788600458 | 19.44° C | 67% | 1017.8 hPa | 0 mm | 4.47 m/s, 315° | - | - |
| 1788599858 | 19.44° C | 67% | 1017.7 hPa | 0 mm | 5.36 m/s, 292° | - | - |
| 1788599258 | 19.44° C | 68% | 1017.4 hPa | 0 mm | 6.26 m/s, 292° | - | - |
| 1788598658 | 19.44° C | 66% | 1017.1 hPa | 0 mm | 6.26 m/s, 292° | - | - |
| 1788598076 | 19.44° C | 66% | 1017.3 hPa | 0 mm | 6.26 m/s, 315° | - | - |
| 1788597457 | 19.44° C | 64% | 1017.6 hPa | 0 mm | 5.81 m/s, 315° | - | - |
| 1788596857 | 19.44° C | 65% | 1017.9 hPa | 0 mm | 5.36 m/s, 315° | - | - |
| 1788596260 | 18.89° C | 67% | 1017.9 hPa | 0 mm | 4.47 m/s, 315° | - | - |
| 1788595657 | 18.89° C | 61% | 1017.9 hPa | 0 mm | 4.47 m/s, 337° | - | - |
| 1788595057 | 18.89° C | 66% | 1017.8 hPa | 0 mm | 4.02 m/s, 315° | - | - |
* Rain latest hour (hover to see other rain measurements)
** Current wind speed in m/s (hover to see current wind gust speed)